Location: Newark
(58.9986°N, 38.5006°E)
Time: 03:38:27
(UTC+00:00)

N. Korean satellite - Pass Details

Date: 09 December 2019
Orbit: 454 x 507 km, 97.2° (Epoch: 27 January)

Event Time Altitude Azimuth Distance (km) Brightness Sun altitude
Rises 14:31:23 0° 177° (S) 2,606 10.5 -13.7°
Reaches altitude 10° 14:33:31 10° 183° (S) 1,723 9.7 -13.9°
Maximum altitude 14:37:09 51° 260° (W) 648 7.6 -14.3°
Drops below altitude 10° 14:40:47 10° 337° (NNW) 1,720 9.4 -14.8°
Sets 14:42:54 0° 343° (NNW) 2,601 10.3 -15.0°
